Wind_Speed
3 3 7 13 13 11 10 11 12 11 12 15 15 14 15 16 13 19 17 16 15 13 13 14 17 20 23 26 29 32 35 38 41 44 47 50 52 54 56 59 62 66 69 75 79 83 88
10 9 7 4 4 4 7 8 9 9 8 9 7 6 3 1 3 3 4 5 7 11 16 19 21 24 28 31 34 36 38 41 43 45 47 49 52 55 57 61 64 66 69 70 75 75 77
14 12 10 10 11 11 9 7 6 6 7 10 11 12 12 14 12 11 11 13 15 17 18 21 24 27 30 33 36 38 38 38 39 40 40 43 46 50 54 56 61 65 67 72 76 77 82
17 18 18 17 18 17 18 20 20 20 19 19 18 15 13 13 15 14 14 14 16 19 21 23 24 24 24 25 24 25 27 28 31 33 35 39 43 49 52 56 59 60 65 69 79 79 78
17 19 20 23 24 23 23 23 23 22 20 19 17 15 15 15 15 16 16 17 21 22 23 24 21 20 20 19 21 23 24 26 29 33 36 40 44 49 53 56 59 53 54 65 75 86 77
20 21 21 20 21 22 22 22 21 20 18 17 17 15 13 14 16 18 18 19 25 26 27 27 24 21 25 26 26 29 30 30 30 29 34 36 37 42 44 50 57 62 65 70 71 73 80
17 18 16 16 18 19 19 18 19 18 16 15 15 13 12 14 17 22 23 23 28 29 32 28 27 28 30 28 28 29 29 26 28 36 40 42 43 46 47 51 55 57 62 68 74 78 76
11 11 13 13 14 15 15 16 17 14 13 13 13 12 12 14 18 22 26 26 31 33 36 37 32 30 31 32 30 30 32 32 34 33 40 41 42 45 49 50 53 54 55 57 61 62 62
9 10 9 12 12 11 12 13 13 11 9 10 12 10 10 13 18 23 28 31 34 36 38 40 36 32 33 36 36 35 35 37 36 37 38 42 47 51 54 56 57 58 55 54 54 55 54
4 5 6 7 8 8 8 10 10 9 8 7 7 8 7 12 16 21 28 33 36 39 37 40 40 36 33 37 35 36 35 37 41 43 44 45 49 53 54 58 58 62 61 57 56 54 53
2 3 2 1 3 5 5 6 7 5 5 6 7 8 6 11 15 20 26 32 37 40 39 39 40 37 33 34 35 37 38 37 40 42 46 47 52 57 59 62 65 69 69 63 58 45 38
6 4 6 5 3 3 3 3 4 2 2 2 5 6 6 9 14 19 24 29 34 39 41 40 41 38 33 32 36 38 38 39 42 45 44 51 52 60 66 71 69 70 72 68 63 60 52
6 6 5 9 9 8 6 4 4 3 2 3 4 5 7 7 12 18 22 27 32 37 42 44 40 41 40 36 36 38 39 42 44 50 56 59 64 63 68 70 73 68 65 66 61 60 52
6 9 7 6 9 12 12 9 7 6 6 3 5 5 7 9 11 15 20 25 30 35 40 44 43 41 43 39 36 39 45 48 52 54 57 62 68 71 70 73 77 79 79 81 77 68 53
6 10 10 8 9 11 15 15 12 10 10 8 5 6 7 10 11 14 18 22 28 33 37 41 44 43 40 41 37 35 40 48 53 57 61 63 66 70 72 79 79 84 85 80 83 76 70
10 7 11 10 10 11 15 18 18 15 14 12 9 7 8 10 12 13 17 21 25 30 35 39 43 46 45 46 45 41 43 49 53 57 62 67 71 73 77 80 85 89 90 85 80 81 80
16 10 14 16 13 13 13 17 21 20 17 17 13 12 10 11 13 14 16 20 24 28 33 37 41 46 50 47 50 47 44 48 52 58 62 65 69 77 80 86 87 91 93 96 98 94 88
22 17 19 18 15 10 12 14 18 24 22 21 18 15 12 11 13 15 17 18 23 26 31 34 39 44 49 49 50 50 49 50 53 58 61 66 71 76 81 86 90 89 97 98 100 101 98
25 26 23 21 18 18 18 15 17 21 26 24 22 20 16 14 15 17 19 19 21 25 29 33 37 41 45 49 50 50 52 53 54 57 62 67 71 77 81 84 88 92 97 98 100 105 107
23 23 24 22 21 19 18 17 16 19 24 26 25 23 21 17 16 17 20 21 22 24 26 30 35 39 43 47 49 50 53 56 56 58 61 65 70 74 79 83 85 91 97 97 100 103 107
20 27 24 24 23 23 25 21 19 16 21 28 27 25 24 21 19 18 20 23 24 25 25 28 32 37 39 42 47 49 52 55 58 59 62 65 68 73 80 82 85 88 92 95 97 101 104
19 20 19 23 28 26 26 22 22 22 20 24 30 28 28 25 23 21 20 22 25 26 26 28 30 35 38 41 45 49 51 54 57 59 61 62 67 69 73 79 85 87 88 92 98 103 106
21 19 25 29 30 31 23 26 30 30 27 25 27 31 30 29 26 23 22 23 24 26 27 28 30 32 37 40 42 48 50 54 57 59 63 63 66 70 72 76 78 82 89 91 95 99 102
21 21 22 25 23 25 28 31 29 27 25 25 27 31 32 31 28 26 24 24 24 26 27 29 30 32 35 38 42 44 48 52 55 60 64 65 66 68 71 73 77 78 81 88 92 95 98
20 23 24 23 25 27 26 25 25 24 23 24 25 28 33 33 31 29 27 25 25 26 27 29 31 31 35 37 40 42 43 45 49 56 60 66 66 67 72 74 73 76 82 86 91 94 98
20 22 25 27 27 23 23 22 18 18 21 24 24 28 29 33 33 31 30 28 26 27 28 29 32 33 36 38 41 44 45 45 47 50 57 63 66 68 69 73 74 74 78 81 85 88 92
22 21 24 26 26 24 22 21 18 19 21 23 24 26 28 29 35 34 32 31 29 28 29 30 33 34 36 39 42 44 46 48 49 52 55 59 65 65 67 69 71 73 76 80 83 88 92
22 21 22 24 25 24 22 20 19 20 20 21 23 24 27 28 31 35 34 32 31 30 30 30 34 36 37 39 42 45 47 46 48 53 57 61 64 65 66 69 71 74 76 79 82 85 88
23 22 22 23 23 24 23 20 19 20 22 23 23 24 26 27 29 33 35 34 32 31 30 30 34 37 39 40 43 45 47 49 48 47 52 57 62 66 70 70 69 70 75 77 80 83 86
Wind_Direction
82 179 216 224 228 235 241 242 243 250 257 273 275 273 281 280 286 270 282 283 289 293 290 288 284 282 280 276 275 275 274 274 273 272 271 270 269 269 269 268 266 265 262 264 264 262 261
68 70 79 121 164 193 221 236 247 253 261 273 277 272 274 46 85 78 68 26 350 329 320 314 306 297 291 288 285 283 282 282 282 282 281 279 278 277 275 276 272 269 268 266 268 265 263
70 80 86 87 89 95 105 111 112 118 122 118 112 107 101 94 76 50 22 359 344 334 327 319 309 300 293 290 289 289 289 288 287 285 283 281 281 279 278 275 273 273 270 268 263 262 263
72 82 89 94 98 103 107 111 112 111 108 102 98 93 82 69 46 27 12 3 351 344 340 333 325 319 315 312 311 305 299 297 299 299 297 296 297 295 292 289 286 282 278 275 274 265 261
75 86 93 99 100 102 103 104 102 98 94 91 84 80 74 57 43 30 18 11 11 3 354 348 344 345 341 337 340 338 331 327 325 321 319 315 311 305 302 299 298 294 284 277 272 277 272
84 88 97 94 95 97 96 97 95 96 93 83 75 77 68 54 39 26 17 19 15 13 8 5 6 7 11 5 358 353 350 338 326 320 317 319 317 316 313 308 305 301 298 296 290 282 279
91 82 86 91 92 89 93 97 98 92 85 75 72 78 74 54 34 31 28 24 22 17 18 17 18 16 15 7 3 355 348 346 340 338 346 336 328 324 318 312 307 304 298 293 288 290 290
91 87 92 94 92 90 94 98 96 91 83 76 73 76 63 44 33 31 30 29 26 23 22 25 18 13 12 12 7 1 2 355 347 342 334 331 331 327 328 327 323 319 312 305 300 296 290
90 93 82 98 97 95 97 101 92 88 78 73 65 68 50 36 33 33 33 32 28 24 23 26 20 14 14 14 15 12 4 352 346 343 343 347 345 347 349 344 338 334 328 320 316 307 300
123 96 88 93 97 103 99 106 94 88 71 51 51 51 45 27 28 27 32 32 29 28 25 25 22 19 18 19 17 13 4 358 1 360 2 357 360 0 356 353 351 351 345 339 332 324 315
336 194 172 71 107 106 116 117 112 98 67 57 40 38 36 23 24 23 29 29 29 29 26 26 24 21 18 16 19 15 18 19 15 11 7 8 8 9 5 5 5 4 354 350 342 331 326
350 296 249 236 248 196 160 155 146 125 30 18 21 27 24 17 17 16 24 28 28 28 27 27 27 24 19 15 17 17 16 14 9 6 8 12 11 10 12 12 10 9 7 358 352 353 345
340 326 299 259 242 237 229 217 199 202 254 304 349 3 14 5 9 10 18 24 26 26 25 26 26 24 21 21 17 16 13 11 12 13 16 15 16 15 17 15 13 8 7 6 5 360 358
306 332 302 292 263 246 237 237 232 224 231 254 305 338 9 358 0 2 7 18 21 24 24 23 22 23 25 22 16 15 16 15 14 15 15 17 17 17 16 16 15 11 12 12 13 9 360
269 319 311 314 279 261 243 238 236 234 230 240 280 326 346 346 347 354 356 8 13 19 21 22 22 22 21 21 22 18 15 16 18 18 18 18 20 19 19 20 17 18 19 16 20 12 13
251 292 297 313 300 278 257 242 240 237 234 238 265 296 325 338 337 345 353 356 6 12 15 19 18 18 17 19 19 19 19 19 19 19 21 20 20 21 22 20 19 20 20 20 17 19 19
248 268 289 298 303 284 281 252 240 237 237 234 254 276 301 322 326 333 342 349 357 5 9 13 16 15 15 15 16 19 22 19 19 18 18 21 21 19 19 22 22 22 21 20 21 19 20
251 275 282 291 295 288 305 267 250 238 236 236 244 260 284 299 317 326 332 342 349 359 2 6 12 14 12 12 16 15 19 19 18 17 19 20 21 23 21 21 22 22 23 21 22 23 20
254 264 271 281 283 295 287 292 258 250 236 236 239 252 267 287 297 317 322 330 339 350 356 359 6 11 12 12 11 15 16 15 15 16 16 17 18 18 21 22 22 22 24 24 24 25 24
251 259 262 278 280 292 284 283 288 258 243 237 239 245 255 270 288 301 317 321 326 340 349 353 358 6 9 8 10 12 15 14 15 14 15 16 16 17 18 21 23 23 24 25 26 26 26
259 254 265 272 281 284 292 278 278 283 256 238 237 243 247 257 274 292 303 314 318 328 341 346 352 358 4 6 7 9 12 16 14 14 13 13 16 16 16 18 21 22 22 23 24 25 26
309 267 270 270 276 278 290 275 276 275 272 247 239 241 243 252 264 279 296 305 312 319 330 337 345 350 357 1 3 6 10 14 15 15 13 11 12 15 17 17 18 19 22 23 23 23 24
324 292 273 270 278 285 282 280 279 275 268 251 242 238 243 248 258 269 284 295 306 314 321 328 336 345 350 355 1 2 6 9 12 13 14 12 11 13 15 17 18 17 18 20 21 22 22
322 317 301 279 278 284 286 291 276 268 258 244 241 239 240 244 252 262 274 288 299 308 315 323 330 337 345 351 353 0 2 6 9 11 12 11 10 9 12 14 15 18 18 18 20 20 21
314 321 320 307 297 300 300 289 276 260 249 240 241 244 241 243 249 256 267 278 290 300 311 317 323 329 337 344 349 351 360 2 2 3 7 8 8 8 8 12 13 13 16 17 17 18 18
316 319 320 317 311 309 304 294 274 257 247 244 245 245 247 245 247 252 261 271 282 292 302 311 319 324 328 336 342 346 348 355 356 1 0 2 5 6 5 5 9 12 13 15 17 17 17
308 314 316 320 320 313 302 289 272 262 255 248 246 248 251 254 247 250 256 265 275 285 294 305 313 319 321 328 334 339 344 347 350 351 356 357 358 1 4 3 6 9 10 11 13 14 14
294 308 310 315 319 322 308 289 283 264 259 252 249 252 255 262 254 247 252 260 269 279 288 300 308 314 317 322 327 332 337 341 344 346 348 350 352 356 360 3 2 6 7 7 9 10 11
286 299 304 308 316 320 317 301 288 272 262 256 255 257 260 266 264 251 250 256 265 274 285 295 302 308 313 319 322 325 333 335 343 345 345 347 349 353 355 358 1 0 4 5 4 6 8
Height
10648 10649 10650 10653 10654 10656 10658 10660 10661 10663 10665 10666 10667 10667 10668 10668 10667 10667 10667 10666 10665 10663 10661 10659 10656 10653 10650 10647 10644 10640 10637 10632 10629 10625 10621 10618 10614 10611 10606 10603 10599 10594 10596 10585 10584 10585 10579
10650 10650 10650 10651 10653 10654 10656 10658 10659 10662 10663 10664 10665 10666 10666 10666 10666 10666 10666 10665 10664 10661 10658 10655 10651 10647 10643 10639 10634 10630 10626 10622 10618 10614 10610 10605 10600 10595 10591 10585 10580 10578 10573 10571 10563 10562 10558
10652 10652 10652 10653 10653 10655 10656 10658 10659 10661 10663 10665 10666 10667 10667 10668 10668 10667 10666 10664 10662 10658 10654 10650 10645 10640 10635 10630 10625 10621 10616 10611 10606 10600 10595 10590 10585 10579 10573 10569 10561 10555 10552 10543 10539 10539 10533
10657 10656 10656 10656 10657 10658 10660 10661 10663 10664 10666 10667 10668 10669 10669 10669 10669 10668 10666 10663 10660 10656 10651 10644 10638 10632 10627 10622 10617 10612 10607 10602 10597 10591 10587 10581 10575 10567 10559 10551 10544 10540 10530 10524 10506 10506 10515
10662 10661 10661 10661 10662 10663 10664 10665 10666 10667 10668 10669 10670 10670 10671 10671 10670 10668 10665 10662 10659 10653 10647 10640 10634 10628 10623 10617 10613 10608 10603 10597 10591 10584 10580 10573 10567 10557 10545 10534 10522 10517 10517 10505 10490 10462 10474
10667 10666 10667 10667 10666 10667 10668 10668 10669 10670 10671 10672 10672 10672 10672 10672 10671 10669 10666 10662 10658 10651 10644 10636 10631 10625 10619 10614 10609 10604 10598 10593 10588 10584 10575 10568 10557 10547 10536 10523 10511 10498 10483 10476 10467 10457 10439
10672 10671 10671 10671 10671 10671 10672 10672 10672 10673 10673 10674 10675 10675 10675 10674 10673 10670 10666 10662 10657 10651 10643 10636 10630 10624 10618 10614 10609 10602 10597 10590 10581 10573 10562 10555 10549 10538 10528 10515 10502 10489 10474 10458 10438 10423 10413
10676 10675 10675 10674 10674 10675 10675 10675 10675 10675 10676 10676 10676 10676 10676 10676 10674 10671 10667 10662 10656 10650 10643 10634 10627 10622 10618 10612 10607 10599 10590 10585 10578 10571 10560 10554 10543 10531 10519 10505 10488 10473 10455 10435 10416 10402 10390
10678 10678 10678 10677 10677 10677 10678 10678 10677 10677 10678 10678 10678 10678 10677 10676 10675 10672 10668 10661 10656 10648 10642 10634 10629 10623 10617 10609 10602 10596 10590 10582 10578 10570 10560 10548 10534 10520 10505 10490 10471 10453 10435 10415 10396 10380 10367
10680 10680 10680 10680 10679 10679 10679 10679 10679 10679 10679 10679 10679 10679 10678 10677 10675 10672 10667 10661 10655 10649 10642 10636 10629 10621 10616 10607 10605 10601 10593 10585 10572 10563 10553 10543 10528 10515 10500 10482 10462 10439 10418 10398 10379 10362 10345
10681 10681 10681 10681 10681 10680 10680 10681 10680 10680 10680 10680 10679 10679 10679 10677 10675 10671 10667 10662 10655 10649 10644 10637 10630 10623 10616 10614 10608 10601 10595 10588 10578 10567 10554 10542 10525 10512 10494 10476 10452 10429 10405 10386 10367 10352 10338
10681 10680 10680 10681 10681 10681 10680 10680 10681 10681 10681 10680 10679 10679 10678 10677 10675 10672 10667 10662 10657 10652 10645 10638 10630 10625 10619 10614 10607 10599 10593 10587 10578 10568 10558 10539 10527 10507 10486 10465 10449 10429 10405 10380 10355 10336 10321
10681 10679 10679 10679 10680 10680 10680 10680 10680 10680 10680 10680 10679 10678 10678 10676 10674 10672 10668 10663 10658 10652 10645 10638 10632 10624 10618 10613 10606 10601 10595 10587 10577 10562 10546 10534 10517 10503 10483 10468 10448 10435 10415 10386 10360 10336 10321
10679 10678 10677 10677 10677 10678 10678 10678 10678 10679 10679 10679 10678 10677 10677 10675 10674 10671 10668 10664 10659 10652 10645 10639 10632 10628 10620 10614 10607 10601 10592 10584 10572 10560 10548 10532 10515 10497 10485 10467 10446 10422 10397 10369 10348 10336 10319
10676 10676 10675 10675 10675 10674 10675 10675 10676 10677 10677 10678 10677 10676 10676 10674 10673 10670 10668 10663 10659 10653 10647 10641 10635 10629 10625 10618 10611 10603 10595 10584 10574 10562 10549 10536 10519 10505 10485 10466 10447 10423 10398 10381 10359 10338 10312
10672 10672 10673 10672 10671 10672 10671 10672 10673 10674 10675 10675 10676 10675 10674 10673 10671 10669 10667 10663 10659 10654 10648 10643 10637 10630 10624 10616 10608 10600 10592 10583 10572 10563 10551 10535 10520 10504 10486 10467 10443 10421 10402 10387 10365 10341 10315
10669 10669 10670 10670 10669 10668 10668 10668 10669 10670 10671 10672 10673 10673 10672 10671 10669 10668 10666 10662 10658 10654 10648 10643 10637 10629 10622 10615 10607 10600 10593 10583 10573 10561 10549 10538 10522 10502 10485 10463 10444 10423 10407 10379 10351 10334 10325
10666 10665 10666 10666 10666 10665 10664 10663 10664 10665 10667 10668 10669 10670 10669 10668 10667 10666 10664 10661 10657 10653 10648 10643 10637 10631 10623 10616 10608 10599 10591 10582 10572 10561 10549 10536 10522 10508 10488 10467 10447 10434 10407 10384 10363 10347 10327
10661 10662 10663 10663 10662 10662 10661 10660 10660 10660 10662 10664 10665 10666 10666 10666 10664 10663 10661 10659 10656 10652 10648 10643 10637 10631 10624 10617 10608 10599 10590 10580 10571 10560 10547 10534 10520 10505 10490 10476 10455 10432 10412 10391 10370 10352 10330
10658 10658 10658 10659 10658 10658 10657 10657 10656 10655 10657 10659 10661 10662 10662 10662 10661 10660 10659 10656 10654 10651 10647 10642 10637 10631 10624 10616 10608 10600 10590 10580 10571 10559 10548 10535 10522 10509 10492 10477 10461 10440 10421 10402 10386 10366 10341
10653 10653 10654 10654 10654 10654 10653 10652 10652 10651 10651 10653 10655 10657 10658 10658 10658 10657 10656 10653 10651 10648 10645 10641 10637 10631 10625 10618 10610 10601 10592 10583 10569 10560 10549 10537 10525 10510 10492 10480 10463 10446 10429 10413 10397 10379 10358
10649 10648 10649 10649 10649 10648 10647 10646 10646 10646 10646 10647 10649 10651 10652 10653 10653 10653 10652 10650 10647 10645 10642 10639 10635 10630 10624 10617 10609 10601 10592 10582 10573 10563 10550 10540 10528 10516 10503 10485 10467 10453 10440 10424 10404 10381 10361
10645 10644 10644 10644 10643 10643 10641 10640 10639 10639 10639 10640 10642 10644 10646 10648 10649 10648 10648 10646 10644 10642 10639 10636 10632 10628 10622 10615 10608 10599 10590 10580 10570 10562 10553 10542 10530 10518 10504 10490 10479 10461 10438 10426 10409 10392 10374
10642 10640 10639 10637 10636 10636 10635 10633 10630 10630 10631 10632 10634 10636 10639 10641 10643 10643 10643 10642 10640 10638 10635 10632 10629 10625 10619 10614 10606 10599 10589 10578 10569 10561 10551 10542 10531 10519 10507 10494 10478 10467 10453 10434 10419 10403 10387
10638 10636 10633 10631 10630 10629 10627 10624 10621 10622 10624 10626 10628 10630 10632 10635 10637 10637 10638 10637 10636 10633 10631 10628 10624 10621 10616 10611 10606 10599 10594 10584 10573 10561 10553 10542 10532 10521 10506 10493 10483 10468 10450 10434 10418 10403 10389
10633 10631 10629 10626 10623 10621 10620 10618 10616 10617 10618 10620 10621 10623 10625 10628 10630 10631 10631 10631 10631 10629 10626 10624 10620 10616 10611 10607 10601 10595 10589 10582 10575 10568 10553 10543 10533 10519 10508 10494 10481 10470 10457 10443 10430 10418 10401
10628 10627 10625 10622 10619 10616 10614 10613 10612 10613 10613 10614 10615 10617 10619 10621 10622 10624 10624 10625 10625 10624 10622 10619 10615 10611 10607 10603 10598 10592 10584 10576 10569 10561 10554 10544 10532 10523 10512 10497 10486 10473 10458 10444 10430 10415 10402
10623 10622 10620 10618 10615 10612 10609 10608 10608 10608 10609 10609 10610 10611 10613 10614 10615 10616 10618 10618 10619 10618 10616 10614 10610 10607 10603 10599 10593 10588 10582 10576 10567 10557 10546 10536 10529 10519 10510 10498 10481 10470 10459 10445 10433 10420 10407
10618 10616 10615 10614 10611 10609 10606 10604 10603 10603 10603 10604 10605 10606 10607 10607 10608 10609 10610 10611 10612 10612 10610 10609 10606 10602 10598 10593 10589 10583 10579 10570 10565 10559 10547 10535 10523 10513 10503 10493 10488 10474 10460 10451 10437 10424 10411